Location: Unspecified
(43.4680°N, 87.1740°E)
Time: 09:11:59
(UTC+00:00)

Cosmos 2227 Rocket - Pass Details

Date: 17 January 2020
Orbit: 841 x 843 km, 71.0° (Epoch: 16 February)

Event Time Altitude Azimuth Distance (km) Brightness Sun altitude
Exits shadow 23:29:04 54° 293° (WNW) 1,012 2.2 -23.4°
Maximum altitude 23:29:59 63° 250° (WSW) 939 2.1 -23.2°
Drops below altitude 10° 23:35:32 10° 170° (S) 2,450 4.8 -22.2°
Sets 23:37:59 0° 167° (SSE) 3,381 5.6 -21.8°
